Location: Ch�tillon
(48.8024°N, 2.2935°E)
Time: 10:20:25
(UTC+00:00)

Cosmos 2263 Rocket - Visible Passes

Search period start: 22 May 2022 00:00
Search period end: 01 June 2022 00:00
Orbit: 824 x 848 km, 71.0° (Epoch: 21 May)

Date Brightness Start Highest point End Pass type
(mag) Time Alt. Az. Time Alt. Az. Time Alt. Az.
22 May 2.9 21:03:11 10° NNW 21:08:34 44° NE 21:12:52 15° ESE visible
22 May 3.2 22:47:21 10° NW 22:52:22 35° WSW 22:54:33 25° SSW visible
23 May 2.9 20:46:24 10° NNW 20:51:43 42° NE 20:56:29 12° ESE visible
23 May 3.1 22:30:30 10° NW 22:35:36 37° WSW 22:38:10 24° SSW visible
24 May 3.0 20:29:37 10° NNW 20:34:52 39° NE 20:40:04 10° ESE visible
24 May 3.0 22:13:38 10° NW 22:18:49 40° WSW 22:21:48 22° SSW visible
25 May 3.1 20:12:50 10° NNW 20:18:01 37° NE 20:23:08 10° ESE visible
25 May 2.9 21:56:46 10° NW 22:02:02 44° WSW 22:05:28 20° S visible
26 May 2.8 21:39:55 10° NW 21:45:15 47° WSW 21:49:11 18° S visible
27 May 2.7 21:23:03 10° NW 21:28:28 51° WSW 21:32:55 15° S visible
28 May 2.7 21:06:13 10° NW 21:11:40 55° WSW 21:16:41 12° S visible
29 May 2.6 20:49:22 10° NW 20:54:52 60° WSW 21:00:19 10° S visible
30 May 2.5 20:32:32 10° NNW 20:38:04 65° WSW 20:43:33 10° SSE visible
31 May 4.6 22:02:39 10° W 22:04:06 11° W 22:05:34 10° WSW visible
